Overview Statistics Trail Chart Weather Telemetry Raw packets
 

This is the latest recevied weather packets stored in our database for station/object N5ZP. If no packets are shown the sender has not sent any weather packets the latest 10 day(s).

<< 111 112 113 114 >>
Time Temp. Humidity Pressure Rain* Wind** Luminosity Snow
1787759182 32.78° C 56% 1012.7 hPa 0 mm - 109 W/m² -
1787758881 32.78° C 55% 1012.9 hPa 0 mm - 104 W/m² -
1787758577 32.78° C 55% 1012.7 hPa 0 mm - 97 W/m² -
1787758275 32.78° C 55% 1012.8 hPa 0 mm - 93 W/m² -
1787757976 32.78° C 54% 1012.8 hPa 0 mm - 97 W/m² -
1787757672 33.33° C 54% 1012.6 hPa 0 mm - 117 W/m² -
1787757372 32.78° C 54% 1012.8 hPa 0 mm - 172 W/m² -
1787757066 32.78° C 54% 1012.9 hPa 0 mm - 171 W/m² -
1787756763 32.78° C 55% 1013 hPa 0 mm - 132 W/m² -
1787756456 32.78° C 55% 1013.1 hPa 0 mm - 135 W/m² -
1787756155 32.22° C 54% 1013 hPa 0 mm - 149 W/m² -
1787755850 32.22° C 55% 1013 hPa 0 mm - 191 W/m² -
1787755549 31.67° C 55% 1012.9 hPa 0 mm - 180 W/m² -
1787755244 31.67° C 55% 1012.9 hPa 0 mm - 133 W/m² -
1787754943 31.67° C 55% 1013.1 hPa 0 mm - 114 W/m² -
1787754638 32.22° C 55% 1012.9 hPa 0 mm - 121 W/m² -
1787754336 32.78° C 53% 1012.6 hPa 0 mm - 118 W/m² -
1787754032 32.78° C 52% 1012.6 hPa 0 mm - 124 W/m² -
1787753730 33.33° C 52% 1012.9 hPa 0 mm - 184 W/m² -
1787753430 33.89° C 50% 1012.8 hPa 0 mm - 205 W/m² -
1787753128 33.89° C 50% 1012.6 hPa 0 mm - 334 W/m² -
1787752823 33.89° C 49% 1013 hPa 0 mm - 199 W/m² -
1787752523 35° C 46% 1013.1 hPa 0 mm - 158 W/m² -

* Rain latest hour (hover to see other rain measurements)
** Current wind speed in m/s (hover to see current wind gust speed)